Powrót do katalogu

CZ-6A DEB

AktywnySSO
NORAD 54524·DEBRIS·🇨🇳 China

Wystrzelony Nov 11, 2022 z Taiyuan Satellite Launch Center

Loading…

Następne Przeloty (najbliższe 24 godziny)

TLE

ŚwieżeSource: Space-Track

Epoka: Sep 14, 2026, 13:27 UTC

1 54524U 22151KC  26257.56076344  .00003370  00000-0  65915-3 0  9990
2 54524  98.4570 293.1913 0086155 358.5125   1.5806 14.61211547202935

Śledź CZ-6A DEB w czasie rzeczywistym z AllMySat

Download on the App Store